,,Stat6,,Stat2,,Stat8,,Stat9,,Stat10,,Wind1,,Wind1,
time,status,PA1M_AVG,status,PR1M_SUM,status,RH1M_AVG,status,SR1M_AVG,status,TA1M_AVG,status,W1dAve1m,status,W1sAve1m,
2005-07-22, 00:00:00,VALID,919.022,VALID,0,VALID,100,VALID,-0.0169808,VALID,19.3167,VALID,34,VALID,0.600836,
2005-07-22, 00:01:00,VALID,919.036,VALID,0,VALID,100,VALID,-0.0509425,VALID,19.307,VALID,34,VALID,0.161577,
2005-07-22, 00:02:00,VALID,919.028,VALID,0,VALID,100,VALID,-0.0509425,VALID,19.2782,VALID,34,VALID,0.234738,
2005-07-22, 00:03:00,VALID,919.001,VALID,0,VALID,100,VALID,-0.0169808,VALID,19.2586,VALID,34,VALID,0.127604,
2005-07-22, 00:04:00,VALID,918.986,VALID,0,VALID,100,VALID,-0.0509425,VALID,19.2556,VALID,22,VALID,0.674055,
2005-07-22, 00:05:00,VALID,918.966,VALID,0,VALID,100,VALID,-0.0339617,VALID,19.2429,VALID,15,VALID,0.789426,
2005-07-22, 00:06:00,VALID,918.953,VALID,0,VALID,100,VALID,0,VALID,19.2293,VALID,9,VALID,0.726944,
2005-07-22, 00:07:00,VALID,918.943,VALID,0,VALID,100,VALID,0,VALID,19.2489,VALID,350,VALID,0.642485,
2005-07-22, 00:08:00,VALID,918.94,VALID,0,VALID,100,VALID,-0.0169808,VALID,19.2941,VALID,350,VALID,0.318537,
2005-07-22, 00:09:00,VALID,918.936,VALID,0,VALID,100,VALID,-0.0169808,VALID,19.3072,VALID,350,VALID,0.728561,
2005-07-22, 00:10:00,VALID,918.936,VALID,0,VALID,100,VALID,-0.0509425,VALID,19.3336,VALID,350,VALID,0.444041,
2005-07-22, 00:11:00,VALID,918.948,VALID,0,VALID,100,VALID,-0.0339617,VALID,19.3266,VALID,350,VALID,0.200586,
2005-07-22, 00:12:00,VALID,918.964,VALID,0,VALID,100,VALID,0,VALID,19.3075,VALID,350,VALID,0.0791903,
2005-07-22, 00:13:00,VALID,918.966,VALID,0,VALID,100,VALID,-0.0169808,VALID,19.2913,VALID,350,VALID,0.153706,
2005-07-22, 00:14:00,VALID,918.961,VALID,0,VALID,100,VALID,-0.0169808,VALID,19.2842,VALID,350,VALID,0.298573,
2005-07-22, 00:15:00,VALID,918.964,VALID,0,VALID,100,VALID,-0.0339617,VALID,19.272,VALID,350,VALID,0.0119913,
2005-07-22, 00:16:00,VALID,918.932,VALID,0,VALID,100,VALID,-0.0169808,VALID,19.2526,VALID,350,VALID,0,
2005-07-22, 00:17:00,VALID,918.915,VALID,0,VALID,100,VALID,-0.0169808,VALID,19.1912,VALID,350,VALID,0,
2005-07-22, 00:18:00,VALID,918.904,VALID,0,VALID,100,VALID,-0.0169808,VALID,19.149,VALID,350,VALID,0.128551,
2005-07-22, 00:19:00,VALID,918.903,VALID,0,VALID,100,VALID,0,VALID,19.0916,VALID,350,VALID,0.387355,
2005-07-22, 00:20:00,VALID,918.908,VALID,0,VALID,100,VALID,-0.0169808,VALID,19.0496,VALID,350,VALID,0.319586,
2005-07-22, 00:21:00,VALID,918.919,VALID,0,VALID,100,VALID,-0.0679233,VALID,19.0104,VALID,350,VALID,0.0303199,
2005-07-22, 00:22:00,VALID,918.927,VALID,0,VALID,100,VALID,-0.0339617,VALID,19.0134,VALID,350,VALID,0.118823,
2005-07-22, 00:23:00,VALID,918.928,VALID,0,VALID,100,VALID,-0.0339617,VALID,19.0141,VALID,350,VALID,0,
2005-07-22, 00:24:00,VALID,918.899,VALID,0,VALID,100,VALID,-0.0509425,VALID,18.9851,VALID,350,VALID,0.0158026,
2005-07-22, 00:25:00,VALID,918.889,VALID,0,VALID,100,VALID,-0.0339617,VALID,18.9652,VALID,350,VALID,0.0234375,
2005-07-22, 00:26:00,VALID,918.876,VALID,0,VALID,100,VALID,-0.0339617,VALID,18.9235,VALID,350,VALID,0.287427,
2005-07-22, 00:27:00,VALID,918.864,VALID,0,VALID,100,VALID,0,VALID,18.9073,VALID,350,VALID,0.3508,
2005-07-22, 00:28:00,VALID,918.844,VALID,0,VALID,100,VALID,-0.0169808,VALID,18.881,VALID,350,VALID,0.312119,
2005-07-22, 00:29:00,VALID,918.836,VALID,0,VALID,100,VALID,-0.0509425,VALID,18.8559,VALID,350,VALID,0.20277,
2005-07-22, 00:30:00,VALID,918.833,VALID,0,VALID,100,VALID,-0.0509425,VALID,18.8266,VALID,350,VALID,0.0423329,
2005-07-22, 00:31:00,VALID,918.836,VALID,0,VALID,100,VALID,-0.0339617,VALID,18.84,VALID,350,VALID,0.209239,
2005-07-22, 00:32:00,VALID,918.815,VALID,0,VALID,100,VALID,-0.0679233,VALID,18.8358,VALID,350,VALID,0.0806108,
2005-07-22, 00:33:00,VALID,918.805,VALID,0,VALID,100,VALID,-0.0509425,VALID,18.8455,VALID,350,VALID,0.222284,
2005-07-22, 00:34:00,VALID,918.784,VALID,0,VALID,100,VALID,-0.0509425,VALID,18.8684,VALID,350,VALID,0.465701,
2005-07-22, 00:35:00,VALID,918.773,VALID,0,VALID,100,VALID,-0.0169808,VALID,18.9009,VALID,350,VALID,0.486861,
2005-07-22, 00:36:00,VALID,918.75,VALID,0,VALID,100,VALID,-0.0169808,VALID,18.9461,VALID,350,VALID,0.481707,
2005-07-22, 00:37:00,VALID,918.725,VALID,0,VALID,100,VALID,-0.0169808,VALID,18.9883,VALID,350,VALID,0.329985,
2005-07-22, 00:38:00,VALID,918.712,VALID,0,VALID,100,VALID,-0.0339617,VALID,19.0104,VALID,350,VALID,0.0125,
2005-07-22, 00:39:00,VALID,918.695,VALID,0,VALID,100,VALID,0,VALID,19.0102,VALID,350,VALID,0.021984,
2005-07-22, 00:40:00,VALID,918.657,VALID,0,VALID,100,VALID,-0.0169808,VALID,19.0134,VALID,350,VALID,0.296875,
2005-07-22, 00:41:00,VALID,918.638,VALID,0,VALID,100,VALID,-0.0169808,VALID,19.0201,VALID,350,VALID,0.37314,
2005-07-22, 00:42:00,VALID,918.614,VALID,0,VALID,100,VALID,0,VALID,19.0298,VALID,350,VALID,0.329268,
2005-07-22, 00:43:00,VALID,918.59,VALID,0,VALID,100,VALID,0,VALID,19.0427,VALID,350,VALID,0.25343,
2005-07-22, 00:44:00,VALID,918.572,VALID,0,VALID,100,VALID,-0.0169808,VALID,19.0623,VALID,350,VALID,0.196221,
2005-07-22, 00:45:00,VALID,918.562,VALID,0,VALID,100,VALID,-0.0169808,VALID,19.0656,VALID,350,VALID,0,
2005-07-22, 00:46:00,VALID,918.538,VALID,0,VALID,100,VALID,-0.0339617,VALID,19.0464,VALID,350,VALID,0,
2005-07-22, 00:47:00,VALID,918.529,VALID,0,VALID,100,VALID,-0.0339617,VALID,19.0042,VALID,350,VALID,0.00745739,
2005-07-22, 00:48:00,VALID,918.544,VALID,0,VALID,100,VALID,-0.0339617,VALID,18.9521,VALID,350,VALID,0.000181686,
2005-07-22, 00:49:00,VALID,918.546,VALID,0,VALID,100,VALID,0,VALID,18.8845,VALID,32,VALID,0.511265,
2005-07-22, 00:50:00,VALID,918.544,VALID,0,VALID,100,VALID,0,VALID,18.7844,VALID,56,VALID,0.606488,
2005-07-22, 00:51:00,VALID,918.529,VALID,0,VALID,100,VALID,-0.0339617,VALID,18.727,VALID,59,VALID,0.500977,
2005-07-22, 00:52:00,VALID,918.515,VALID,0,VALID,100,VALID,-0.0169808,VALID,18.7042,VALID,59,VALID,0.35256,
2005-07-22, 00:53:00,VALID,918.504,VALID,0,VALID,100,VALID,-0.0169808,VALID,18.6915,VALID,59,VALID,0.127951,
2005-07-22, 00:54:00,VALID,918.489,VALID,0,VALID,100,VALID,-0.0339617,VALID,18.6779,VALID,59,VALID,0.151708,
2005-07-22, 00:55:00,VALID,918.469,VALID,0,VALID,100,VALID,-0.0339617,VALID,18.6657,VALID,59,VALID,0.0167683,
2005-07-22, 00:56:00,VALID,918.463,VALID,0,VALID,100,VALID,-0.0509425,VALID,18.652,VALID,59,VALID,0.0999273,
2005-07-22, 00:57:00,VALID,918.449,VALID,0,VALID,100,VALID,-0.0169808,VALID,18.6684,VALID,59,VALID,0.28125,
2005-07-22, 00:58:00,VALID,918.442,VALID,0,VALID,100,VALID,-0.0509425,VALID,18.7079,VALID,59,VALID,0.359169,
2005-07-22, 00:59:00,VALID,918.436,VALID,0,VALID,100,VALID,-0.0509425,VALID,18.7235,VALID,59,VALID,0.432292,
2005-07-22, 01:00:00,VALID,918.431,VALID,0,VALID,100,VALID,-0.0679233,VALID,18.7498,VALID,60,VALID,0.578125,
2005-07-22, 01:01:00,VALID,918.4,VALID,0,VALID,100,VALID,-0.0679233,VALID,18.7399,VALID,64,VALID,0.638579,
2005-07-22, 01:02:00,VALID,918.356,VALID,0,VALID,100,VALID,-0.0509425,VALID,18.7309,VALID,91,VALID,0.71513,
2005-07-22, 01:03:00,VALID,918.315,VALID,0,VALID,100,VALID,-0.0509425,VALID,18.7012,VALID,98,VALID,0.620739,
2005-07-22, 01:04:00,VALID,918.29,VALID,0,VALID,100,VALID,-0.0339617,VALID,18.6786,VALID,98,VALID,0.441506,
2005-07-22, 01:05:00,VALID,918.266,VALID,0,VALID,100,VALID,0,VALID,18.6557,VALID,98,VALID,0.502604,
2005-07-22, 01:06:00,VALID,918.235,VALID,0,VALID,100,VALID,-0.0679233,VALID,18.6527,VALID,98,VALID,0.455305,
2005-07-22, 01:07:00,VALID,918.215,VALID,0,VALID,100,VALID,-0.0509425,VALID,18.6433,VALID,99,VALID,0.383956,
2005-07-22, 01:08:00,VALID,918.198,VALID,0,VALID,100,VALID,-0.0679233,VALID,18.6269,VALID,102,VALID,0.573828,
2005-07-22, 01:09:00,VALID,918.204,VALID,0,VALID,100,VALID,-0.0849042,VALID,18.6108,VALID,102,VALID,0.104056,
2005-07-22, 01:10:00,VALID,918.202,VALID,0,VALID,100,VALID,-0.0509425,VALID,18.5953,VALID,102,VALID,0.000181686,
2005-07-22, 01:11:00,VALID,918.183,VALID,0,VALID,100,VALID,-0.0509425,VALID,18.5688,VALID,102,VALID,0.0258557,
2005-07-22, 01:12:00,VALID,918.159,VALID,0,VALID,100,VALID,-0.0339617,VALID,18.5725,VALID,102,VALID,0.344512,
2005-07-22, 01:13:00,VALID,918.157,VALID,0,VALID,100,VALID,0,VALID,18.5582,VALID,102,VALID,0.185976,
2005-07-22, 01:14:00,VALID,918.154,VALID,0,VALID,100,VALID,0,VALID,18.545,VALID,101,VALID,0.105183,
2005-07-22, 01:15:00,VALID,918.133,VALID,0,VALID,100,VALID,0,VALID,18.4772,VALID,98,VALID,0.370998,
2005-07-22, 01:16:00,VALID,918.101,VALID,0,VALID,100,VALID,0.0169808,VALID,18.4415,VALID,97,VALID,0.436955,
2005-07-22, 01:17:00,VALID,918.072,VALID,0,VALID,100,VALID,0.0339617,VALID,18.4,VALID,97,VALID,0.416903,
2005-07-22, 01:18:00,VALID,918.051,VALID,0,VALID,100,VALID,0.0169808,VALID,18.3769,VALID,88,VALID,0.515988,
2005-07-22, 01:19:00,VALID,918.038,VALID,0,VALID,100,VALID,0.0339617,VALID,18.406,VALID,70,VALID,0.455788,
2005-07-22, 01:20:00,VALID,918.019,VALID,0,VALID,100,VALID,0.0849042,VALID,18.4415,VALID,70,VALID,0.40407,
2005-07-22, 01:21:00,VALID,918.006,VALID,0,VALID,100,VALID,0.0509425,VALID,18.4738,VALID,70,VALID,0.194382,
2005-07-22, 01:22:00,VALID,917.997,VALID,0,VALID,100,VALID,0.0169808,VALID,18.5063,VALID,70,VALID,0.0671503,
2005-07-22, 01:23:00,VALID,917.994,VALID,0,VALID,100,VALID,0,VALID,18.522,VALID,70,VALID,0,
2005-07-22, 01:24:00,VALID,917.981,VALID,0,VALID,100,VALID,0.0339617,VALID,18.5423,VALID,70,VALID,0,
2005-07-22, 01:25:00,VALID,917.953,VALID,0,VALID,100,VALID,0.0169808,VALID,18.5383,VALID,70,VALID,0,
2005-07-22, 01:26:00,VALID,917.946,VALID,0,VALID,100,VALID,0,VALID,18.5316,VALID,70,VALID,0.374273,
2005-07-22, 01:27:00,VALID,917.915,VALID,0,VALID,100,VALID,0.0509425,VALID,18.5386,VALID,70,VALID,0.570508,
2005-07-22, 01:28:00,VALID,917.898,VALID,0,VALID,100,VALID,0.0509425,VALID,18.5542,VALID,70,VALID,0.579055,
2005-07-22, 01:29:00,VALID,917.894,VALID,0,VALID,100,VALID,0.0679233,VALID,18.5902,VALID,70,VALID,0.527344,
2005-07-22, 01:30:00,VALID,917.89,VALID,0,VALID,100,VALID,0.0509425,VALID,18.6061,VALID,71,VALID,0.579901,
2005-07-22, 01:31:00,VALID,917.88,VALID,0,VALID,100,VALID,0.0679233,VALID,18.6094,VALID,94,VALID,0.584517,
2005-07-22, 01:32:00,VALID,917.877,VALID,0,VALID,100,VALID,0.0339617,VALID,18.6128,VALID,104,VALID,0.632068,
2005-07-22, 01:33:00,VALID,917.857,VALID,0,VALID,100,VALID,0.0509425,VALID,18.5967,VALID,111,VALID,0.810268,
2005-07-22, 01:34:00,VALID,917.849,VALID,0,VALID,100,VALID,0.0849042,VALID,18.5547,VALID,121,VALID,0.522507,
2005-07-22, 01:35:00,VALID,917.841,VALID,0,VALID,100,VALID,0.0509425,VALID,18.5287,VALID,121,VALID,0.414885,
2005-07-22, 01:36:00,VALID,917.821,VALID,0,VALID,100,VALID,0.0169808,VALID,18.5257,VALID,121,VALID,0.314406,
2005-07-22, 01:37:00,VALID,917.799,VALID,0,VALID,100,VALID,0.0339617,VALID,18.5125,VALID,121,VALID,0.550305,
2005-07-22, 01:38:00,VALID,917.801,VALID,0,VALID,100,VALID,0.0339617,VALID,18.5162,VALID,90,VALID,0.767805,
2005-07-22, 01:39:00,VALID,917.771,VALID,0,VALID,100,VALID,0.0169808,VALID,18.4546,VALID,72,VALID,0.68936,
2005-07-22, 01:40:00,VALID,917.769,VALID,0,VALID,100,VALID,0.0339617,VALID,18.477,VALID,72,VALID,0.685902,
2005-07-22, 01:41:00,VALID,917.758,VALID,0,VALID,100,VALID,0.0679233,VALID,18.4996,VALID,72,VALID,0.614258,
2005-07-22, 01:42:00,VALID,917.764,VALID,0,VALID,100,VALID,0.0339617,VALID,18.5227,VALID,82,VALID,0.826265,
2005-07-22, 01:43:00,VALID,917.761,VALID,0,VALID,100,VALID,0.0679233,VALID,18.5284,VALID,96,VALID,0.964666,
2005-07-22, 01:44:00,VALID,917.765,VALID,0,VALID,100,VALID,0.0509425,VALID,18.5319,VALID,114,VALID,0.768682,
2005-07-22, 01:45:00,VALID,917.758,VALID,0,VALID,100,VALID,0.0509425,VALID,18.5192,VALID,119,VALID,0.660457,
2005-07-22, 01:46:00,VALID,917.759,VALID,0,VALID,100,VALID,0.0169808,VALID,18.5194,VALID,123,VALID,0.956321,
2005-07-22, 01:47:00,VALID,917.748,VALID,0,VALID,100,VALID,0.0509425,VALID,18.5294,VALID,117,VALID,0.826172,
2005-07-22, 01:48:00,VALID,917.737,VALID,0,VALID,100,VALID,0.0509425,VALID,18.5418,VALID,132,VALID,0.671503,
2005-07-22, 01:49:00,VALID,917.742,VALID,0,VALID,100,VALID,0.0339617,VALID,18.548,VALID,116,VALID,0.525586,
2005-07-22, 01:50:00,VALID,917.742,VALID,0,VALID,100,VALID,0.0169808,VALID,18.548,VALID,86,VALID,0.755208,
2005-07-22, 01:51:00,VALID,917.727,VALID,0,VALID,100,VALID,0.0169808,VALID,18.5679,VALID,84,VALID,0.705729,
2005-07-22, 01:52:00,VALID,917.694,VALID,0,VALID,100,VALID,0.0169808,VALID,18.5614,VALID,96,VALID,0.936738,
2005-07-22, 01:53:00,VALID,917.675,VALID,0,VALID,100,VALID,0.0169808,VALID,18.5842,VALID,105,VALID,1.10394,
2005-07-22, 01:54:00,VALID,917.646,VALID,0,VALID,100,VALID,0.0169808,VALID,18.5875,VALID,106,VALID,0.620908,
2005-07-22, 01:55:00,VALID,917.605,VALID,0,VALID,100,VALID,0.0169808,VALID,18.5773,VALID,106,VALID,0.739397,
2005-07-22, 01:56:00,VALID,917.587,VALID,0,VALID,100,VALID,0.0169808,VALID,18.5942,VALID,106,VALID,0.699777,
2005-07-22, 01:57:00,VALID,917.592,VALID,0,VALID,100,VALID,0.0339617,VALID,18.6001,VALID,106,VALID,0.297433,
2005-07-22, 01:58:00,VALID,917.568,VALID,0,VALID,100,VALID,0,VALID,18.5939,VALID,106,VALID,0.419819,
2005-07-22, 01:59:00,VALID,917.565,VALID,0,VALID,100,VALID,0.0679233,VALID,18.5935,VALID,106,VALID,0.481027,
2005-07-22, 02:00:00,VALID,917.557,VALID,0,VALID,100,VALID,0.0169808,VALID,18.6031,VALID,106,VALID,0.110709,
2005-07-22, 02:01:00,VALID,917.562,VALID,0,VALID,100,VALID,0.0509425,VALID,18.6068,VALID,106,VALID,0,
2005-07-22, 02:02:00,VALID,917.541,VALID,0,VALID,100,VALID,0.0169808,VALID,18.5937,VALID,106,VALID,0.119855,
2005-07-22, 02:03:00,VALID,917.527,VALID,0,VALID,100,VALID,0.0169808,VALID,18.5835,VALID,106,VALID,0.310547,
2005-07-22, 02:04:00,VALID,917.534,VALID,0,VALID,100,VALID,0,VALID,18.5902,VALID,106,VALID,0.49375,
2005-07-22, 02:05:00,VALID,917.535,VALID,0,VALID,100,VALID,0.0339617,VALID,18.587,VALID,106,VALID,0.377232,
2005-07-22, 02:06:00,VALID,917.544,VALID,0,VALID,100,VALID,0.0509425,VALID,18.587,VALID,106,VALID,0.0204613,
2005-07-22, 02:07:00,VALID,917.559,VALID,0,VALID,100,VALID,0,VALID,18.5383,VALID,106,VALID,0,
2005-07-22, 02:08:00,VALID,917.57,VALID,0,VALID,100,VALID,0.0169808,VALID,18.5353,VALID,106,VALID,0,
2005-07-22, 02:09:00,VALID,917.568,VALID,0,VALID,100,VALID,0,VALID,18.5517,VALID,106,VALID,0,
2005-07-22, 02:10:00,VALID,917.564,VALID,0,VALID,100,VALID,0,VALID,18.5614,VALID,106,VALID,0,
2005-07-22, 02:11:00,VALID,917.551,VALID,0,VALID,100,VALID,0,VALID,18.5609,VALID,106,VALID,0.135045,
2005-07-22, 02:12:00,VALID,917.548,VALID,0,VALID,100,VALID,0.0849042,VALID,18.5612,VALID,106,VALID,0.225883,
2005-07-22, 02:13:00,VALID,917.55,VALID,0,VALID,100,VALID,0.0169808,VALID,18.5323,VALID,106,VALID,0.252907,
2005-07-22, 02:14:00,VALID,917.577,VALID,0,VALID,100,VALID,0.0509425,VALID,18.5063,VALID,106,VALID,0.0053267,
2005-07-22, 02:15:00,VALID,917.583,VALID,0,VALID,100,VALID,0.0509425,VALID,18.507,VALID,106,VALID,0,
2005-07-22, 02:16:00,VALID,917.606,VALID,0,VALID,100,VALID,0.0339617,VALID,18.4943,VALID,106,VALID,0,
2005-07-22, 02:17:00,VALID,917.614,VALID,0,VALID,100,VALID,0.0509425,VALID,18.4708,VALID,106,VALID,0,
2005-07-22, 02:18:00,VALID,917.603,VALID,0,VALID,100,VALID,0.0679233,VALID,18.4551,VALID,106,VALID,0.132622,
2005-07-22, 02:19:00,VALID,917.604,VALID,0,VALID,100,VALID,0.0509425,VALID,18.4549,VALID,106,VALID,0.474276,
2005-07-22, 02:20:00,VALID,917.6,VALID,0,VALID,100,VALID,0.0169808,VALID,18.4648,VALID,88,VALID,0.528011,
2005-07-22, 02:21:00,VALID,917.593,VALID,0,VALID,100,VALID,0.0679233,VALID,18.4708,VALID,79,VALID,0.499112,
2005-07-22, 02:22:00,VALID,917.594,VALID,0,VALID,100,VALID,0.0169808,VALID,18.4646,VALID,78,VALID,0.0612282,
2005-07-22, 02:23:00,VALID,917.584,VALID,0,VALID,100,VALID,0.0849042,VALID,18.4223,VALID,78,VALID,0,
2005-07-22, 02:24:00,VALID,917.576,VALID,0,VALID,100,VALID,0.0339617,VALID,18.3774,VALID,78,VALID,0.00545058,
2005-07-22, 02:25:00,VALID,917.573,VALID,0,VALID,100,VALID,0.0679233,VALID,18.3449,VALID,78,VALID,0.328956,
2005-07-22, 02:26:00,VALID,917.586,VALID,0,VALID,100,VALID,0.0339617,VALID,18.3903,VALID,78,VALID,0.414663,
2005-07-22, 02:27:00,VALID,917.578,VALID,0,VALID,100,VALID,0.0339617,VALID,18.4484,VALID,78,VALID,0.35462,
2005-07-22, 02:28:00,VALID,917.557,VALID,0,VALID,100,VALID,0.0169808,VALID,18.4906,VALID,78,VALID,0.117882,
2005-07-22, 02:29:00,VALID,917.553,VALID,0,VALID,100,VALID,0.0339617,VALID,18.5097,VALID,78,VALID,0.00218023,
2005-07-22, 02:30:00,VALID,917.534,VALID,0,VALID,100,VALID,0.0339617,VALID,18.5321,VALID,78,VALID,0,
2005-07-22, 02:31:00,VALID,917.516,VALID,0,VALID,100,VALID,0.0509425,VALID,18.513,VALID,78,VALID,0,
2005-07-22, 02:32:00,VALID,917.518,VALID,0,VALID,100,VALID,0.0169808,VALID,18.4906,VALID,78,VALID,0.267857,
2005-07-22, 02:33:00,VALID,917.51,VALID,0,VALID,100,VALID,0,VALID,18.4908,VALID,78,VALID,0.178445,
2005-07-22, 02:34:00,VALID,917.482,VALID,0,VALID,100,VALID,0.0169808,VALID,18.4867,VALID,78,VALID,0.00177557,
2005-07-22, 02:35:00,VALID,917.457,VALID,0,VALID,100,VALID,0.0509425,VALID,18.5063,VALID,78,VALID,0.0119792,
2005-07-22, 02:36:00,VALID,917.435,VALID,0,VALID,100,VALID,0.0509425,VALID,18.5353,VALID,71,VALID,0.537609,
2005-07-22, 02:37:00,VALID,917.431,VALID,0,VALID,100,VALID,0.0679233,VALID,18.545,VALID,56,VALID,0.462003,
2005-07-22, 02:38:00,VALID,917.422,VALID,0,VALID,100,VALID,0.0339617,VALID,18.5492,VALID,56,VALID,0.422783,
2005-07-22, 02:39:00,VALID,917.427,VALID,0,VALID,100,VALID,0.0169808,VALID,18.4941,VALID,56,VALID,0.143415,
2005-07-22, 02:40:00,VALID,917.42,VALID,0,VALID,100,VALID,0.0849042,VALID,18.4611,VALID,56,VALID,0,
2005-07-22, 02:41:00,VALID,917.413,VALID,0,VALID,100,VALID,0.0509425,VALID,18.4549,VALID,56,VALID,0.0543324,
2005-07-22, 02:42:00,VALID,917.401,VALID,0,VALID,100,VALID,0.0509425,VALID,18.4509,VALID,56,VALID,0.31141,
2005-07-22, 02:43:00,VALID,917.392,VALID,0,VALID,100,VALID,0,VALID,18.4814,VALID,56,VALID,0.102628,
2005-07-22, 02:44:00,VALID,917.376,VALID,0,VALID,100,VALID,0,VALID,18.5107,VALID,56,VALID,0.113281,
2005-07-22, 02:45:00,VALID,917.362,VALID,0,VALID,100,VALID,-0.0679233,VALID,18.5176,VALID,56,VALID,0.00890262,
2005-07-22, 02:46:00,VALID,917.364,VALID,0,VALID,100,VALID,-0.0509425,VALID,18.4689,VALID,56,VALID,0.212462,
2005-07-22, 02:47:00,VALID,917.368,VALID,0,VALID,100,VALID,-0.0849042,VALID,18.4237,VALID,56,VALID,0.0179521,
2005-07-22, 02:48:00,VALID,917.371,VALID,0,VALID,100,VALID,-0.0169808,VALID,18.4145,VALID,56,VALID,0.220424,
2005-07-22, 02:49:00,VALID,917.37,VALID,0,VALID,100,VALID,-0.0679233,VALID,18.4014,VALID,56,VALID,0.151972,
2005-07-22, 02:50:00,VALID,917.395,VALID,0,VALID,100,VALID,-0.0339617,VALID,18.3875,VALID,56,VALID,0,
2005-07-22, 02:51:00,VALID,917.402,VALID,0,VALID,100,VALID,-0.0339617,VALID,18.3977,VALID,56,VALID,0,
2005-07-22, 02:52:00,VALID,917.407,VALID,0,VALID,100,VALID,-0.0849042,VALID,18.3882,VALID,56,VALID,0.0010016,
2005-07-22, 02:53:00,VALID,917.414,VALID,0,VALID,100,VALID,-0.0849042,VALID,18.3951,VALID,56,VALID,0,
2005-07-22, 02:54:00,VALID,917.401,VALID,0,VALID,100,VALID,-0.0849042,VALID,18.3815,VALID,56,VALID,0.170847,
2005-07-22, 02:55:00,VALID,917.383,VALID,0,VALID,100,VALID,-0.0339617,VALID,18.3555,VALID,56,VALID,0.488948,
2005-07-22, 02:56:00,VALID,917.363,VALID,0,VALID,100,VALID,-0.0849042,VALID,18.3532,VALID,49,VALID,1.28343,
2005-07-22, 02:57:00,VALID,917.355,VALID,0,VALID,100,VALID,-0.0849042,VALID,18.3269,VALID,25,VALID,0.794085,
2005-07-22, 02:58:00,VALID,917.362,VALID,0,VALID,100,VALID,-0.0509425,VALID,18.3008,VALID,16,VALID,0.453683,
2005-07-22, 02:59:00,VALID,917.367,VALID,0,VALID,100,VALID,-0.0849042,VALID,18.3142,VALID,5,VALID,0.223474,
2005-07-22, 03:00:00,VALID,917.368,VALID,0,VALID,100,VALID,-0.0339617,VALID,18.3559,VALID,359,VALID,0.14375,
2005-07-22, 03:01:00,VALID,917.376,VALID,0,VALID,100,VALID,-0.0679233,VALID,18.3795,VALID,359,VALID,0.0921148,
2005-07-22, 03:02:00,VALID,917.382,VALID,0,VALID,100,VALID,-0.0509425,VALID,18.3977,VALID,359,VALID,0.207813,
2005-07-22, 03:03:00,VALID,917.384,VALID,0,VALID,100,VALID,-0.0509425,VALID,18.3979,VALID,360,VALID,0.27793,
2005-07-22, 03:04:00,VALID,917.368,VALID,0,VALID,100,VALID,-0.0679233,VALID,18.4078,VALID,86,VALID,0.495245,
2005-07-22, 03:05:00,VALID,917.378,VALID,0,VALID,100,VALID,-0.0849042,VALID,18.3981,VALID,109,VALID,0.609933,
2005-07-22, 03:06:00,VALID,917.368,VALID,0,VALID,100,VALID,-0.0679233,VALID,18.3659,VALID,111,VALID,0.528125,
2005-07-22, 03:07:00,VALID,917.363,VALID,0,VALID,100,VALID,-0.0339617,VALID,18.3532,VALID,118,VALID,0.520486,
2005-07-22, 03:08:00,VALID,917.344,VALID,0,VALID,100,VALID,-0.0509425,VALID,18.3333,VALID,119,VALID,0.280692,
2005-07-22, 03:09:00,VALID,917.342,VALID,0,VALID,100,VALID,-0.0849042,VALID,18.3306,VALID,119,VALID,0.13244,
2005-07-22, 03:10:00,VALID,917.34,VALID,0,VALID,100,VALID,-0.0509425,VALID,18.3204,VALID,119,VALID,0.0025436,
2005-07-22, 03:11:00,VALID,917.353,VALID,0,VALID,100,VALID,-0.0169808,VALID,18.311,VALID,119,VALID,0,
2005-07-22, 03:12:00,VALID,917.339,VALID,0,VALID,100,VALID,-0.0169808,VALID,18.2978,VALID,119,VALID,0.139101,
2005-07-22, 03:13:00,VALID,917.337,VALID,0,VALID,100,VALID,0,VALID,18.2879,VALID,119,VALID,0.321039,
2005-07-22, 03:14:00,VALID,917.35,VALID,0,VALID,100,VALID,-0.0169808,VALID,18.2552,VALID,119,VALID,0.0243459,
2005-07-22, 03:15:00,VALID,917.335,VALID,0,VALID,100,VALID,0,VALID,18.2619,VALID,119,VALID,0,
2005-07-22, 03:16:00,VALID,917.335,VALID,0,VALID,100,VALID,0.0169808,VALID,18.2494,VALID,119,VALID,0,
2005-07-22, 03:17:00,VALID,917.324,VALID,0,VALID,100,VALID,0,VALID,18.2556,VALID,119,VALID,0.0152853,
2005-07-22, 03:18:00,VALID,917.328,VALID,0,VALID,100,VALID,-0.0169808,VALID,18.243,VALID,119,VALID,0,
2005-07-22, 03:19:00,VALID,917.309,VALID,0,VALID,100,VALID,0,VALID,18.2393,VALID,119,VALID,0,
2005-07-22, 03:20:00,VALID,917.288,VALID,0,VALID,100,VALID,-0.0339617,VALID,18.2462,VALID,119,VALID,0,
2005-07-22, 03:21:00,VALID,917.288,VALID,0,VALID,100,VALID,-0.0169808,VALID,18.2234,VALID,119,VALID,0,
2005-07-22, 03:22:00,VALID,917.283,VALID,0,VALID,100,VALID,-0.0339617,VALID,18.233,VALID,119,VALID,0,
2005-07-22, 03:23:00,VALID,917.288,VALID,0,VALID,100,VALID,-0.0169808,VALID,18.236,VALID,119,VALID,0.151344,
2005-07-22, 03:24:00,VALID,917.304,VALID,0,VALID,100,VALID,-0.0169808,VALID,18.2201,VALID,119,VALID,0.248397,
2005-07-22, 03:25:00,VALID,917.312,VALID,0,VALID,100,VALID,-0.0339617,VALID,18.233,VALID,119,VALID,0.0863095,
2005-07-22, 03:26:00,VALID,917.319,VALID,0,VALID,100,VALID,0,VALID,18.227,VALID,119,VALID,0.00486111,
2005-07-22, 03:27:00,VALID,917.341,VALID,0,VALID,100,VALID,-0.0169808,VALID,18.2174,VALID,119,VALID,0.00495427,
2005-07-22, 03:28:00,VALID,917.327,VALID,0,VALID,100,VALID,0,VALID,18.1943,VALID,119,VALID,0.321243,
2005-07-22, 03:29:00,VALID,917.354,VALID,0,VALID,100,VALID,-0.0169808,VALID,18.1816,VALID,119,VALID,0.292225,
2005-07-22, 03:30:00,VALID,917.352,VALID,0,VALID,100,VALID,0,VALID,18.1717,VALID,119,VALID,0.577753,
2005-07-22, 03:31:00,VALID,917.349,VALID,0,VALID,100,VALID,-0.0169808,VALID,18.1749,VALID,119,VALID,0.617697,
2005-07-22, 03:32:01,VALID,917.36,VALID,0,VALID,100,VALID,0,VALID,18.2005,VALID,119,VALID,0.642987,
2005-07-22, 03:33:00,VALID,917.389,VALID,0,VALID,100,VALID,0.0169808,VALID,18.2134,VALID,119,VALID,0.26617,
2005-07-22, 03:34:00,VALID,917.401,VALID,0,VALID,100,VALID,0,VALID,18.2102,VALID,119,VALID,0.352325,
2005-07-22, 03:35:00,VALID,917.413,VALID,0,VALID,100,VALID,-0.0339617,VALID,18.201,VALID,119,VALID,0.376143,
2005-07-22, 03:36:00,VALID,917.426,VALID,0,VALID,100,VALID,-0.0169808,VALID,18.1752,VALID,119,VALID,0.111192,
2005-07-22, 03:37:00,VALID,917.437,VALID,0,VALID,100,VALID,0,VALID,18.1489,VALID,119,VALID,0.409784,
2005-07-22, 03:38:00,VALID,917.437,VALID,0,VALID,100,VALID,-0.0339617,VALID,18.1719,VALID,120,VALID,0.662972,
2005-07-22, 03:39:00,VALID,917.459,VALID,0,VALID,100,VALID,0,VALID,18.2074,VALID,121,VALID,0.349382,
2005-07-22, 03:40:00,VALID,917.461,VALID,0,VALID,100,VALID,-0.0169808,VALID,18.1978,VALID,124,VALID,0.44436,